Tracking 29892 objects as of 21-Nov-2024
HD Live streaming from Space Station
objects crossing your sky now

STARLINK-6223

Track STARLINK-6223 now!
10-day predictions
STARLINK-6223 is classified as:


NORAD ID: 57057
Int'l Code: 2023-088K
Perigee: 565.4 km
Apogee: 567.0 km
Inclination: 43.0 °
Period: 95.8 minutes
Semi major axis: 6937 km
RCS: Unknown
Launch date: June 22, 2023
Source: United States (US)
Launch site: AIR FORCE WESTERN TEST RANGE (AFWTR)
Your satellite tracking list
Your tracking list is empty




NASA's NSSDC Master Catalog

Two Line Element Set (TLE):
1 57057U 23088K   24325.91908545  .00000299  00000-0  37213-4 0  9992
2 57057  43.0026 161.6769 0001154 269.1173  90.9537 15.02538431 78209
Source of the keplerian elements: AFSPC